Location: Bachas
(43.2439°N, 0.9375°E)
Time: 05:34:24
(UTC+00:00)

Meteor 2-3 Rocket - Pass Details

Date: 18 February 2020
Orbit: 842 x 885 km, 81.3° (Epoch: 09 April)

Event Time Altitude Azimuth Distance (km) Brightness Sun altitude
Rises 04:50:33 0° 348° (NNW) 3,464 6.8 -22.5°
Reaches altitude 10° 04:52:59 10° 348° (NNW) 2,529 6.1 -22.1°
Maximum altitude 04:58:45 81° 262° (W) 893 3.6 -21.0°
Drops below altitude 10° 05:04:31 10° 176° (S) 2,534 6.2 -20.0°
Sets 05:06:57 0° 175° (S) 3,471 6.9 -19.6°
